Location: Klein M�hlingen
(51.9472°N, 11.7453°E)
Time: 13:31:40
(UTC+00:00)

ASTEX 1 - Pass Details

Date: 09 April 2020
Orbit: 720 x 743 km, 92.7° (Epoch: 26 May)

Event Time Altitude Azimuth Distance (km) Brightness Sun altitude
Exits shadow 21:50:00 56° 264° (W) 880 3.8 -27.4°
Maximum altitude 21:50:04 56° 268° (W) 879 3.8 -27.4°
Drops below altitude 10° 21:54:58 10° 347° (NNW) 2,250 6.9 -27.7°
Sets 21:57:19 0° 352° (N) 3,174 7.9 -27.8°
